Retour au catalogue

ONEWEB-0110

ActifCommunicationsPO
NORAD 47260·PAYLOAD·🇬🇧 United Kingdom

Lancé Dec 18, 2020 depuis Vostochny Cosmodrome

Loading…

Prochains Passages (prochaines 24 heures)

TLE

FraisSource: CelesTrak SupGP

Époque: Sep 14, 2026, 18:27 UTC

1 47260C 20100C   26257.76924028 -.00000124  00000+0 -34542-3 0  2578
2 47260  87.8985 332.8626 0002056  93.2028   6.1591 13.12441890    19

Suivez ONEWEB-0110 en temps réel avec AllMySat

Download on the App Store